Weather History for Buffalo, WY

Change the Weather History Date:

Saturday, February 23, 2013

  Actual Average Record
Temperature  
Mean Temperature 30 °F 29 °F  
Max Temperature 36 °F 40 °F 57 °F (2009)
Min Temperature 23 °F 19 °F -13 °F (2003)
Degree Days  
Heating Degree Days 35 36  
Month to date heating degree days 871 858  
Since 1 July heating degree days 4749 5065  
Cooling Degree Days 0 0  
Month to date cooling degree days 0 0  
Year to date cooling degree days 0 0  
Moisture  
Dew Point 21 °F    
Average Humidity 64    
Maximum Humidity 92    
Minimum Humidity 35    
Precipitation  
Precipitation 0.01 in 0.01 in 0.03 in (2007)
Month to date precipitation 0.13 0.29  
Year to date precipitation 0.61 0.71  
Sea Level Pressure  
Sea Level Pressure 29.73 in    
Wind  
Wind Speed 12 mph (NNW)    
Max Wind Speed 37 mph    
Max Gust Speed 49 mph    
Visibility 5 miles    
Events Fog , Snow    
T = Trace of Precipitation, MM = Missing Value Source: NWS Daily Summary

Daily Weather History Graph

Daily Weather History Graph

Search for Another Location

Airport:

Trip Planner

Search our weather history database for the weather conditions in past years. The results will help you decide how hot, cold, wet, or windy it might be!

Date:

Astronomy

Feb. 23, 2013 Rise Set
Actual Time 6:53 AM MST 5:47 PM MST
Civil Twilight 6:24 AM MST 6:16 PM MST
Nautical Twilight 5:50 AM MST 6:50 PM MST
Astronomical Twilight 5:17 AM MST 7:24 PM MST
Moon 3:58 PM MST (2/23) 5:20 AM MST (2/23)
Length of Visible Light 11h 52m
Length of Day
10h 53m
Waxing Gibbous, 95% of the Moon is Illuminated
Feb 23
Waxing Gibbous
Feb 25
Full
Mar 4
Last Quarter
Mar 11
New
Mar 19
First Quarter

Hourly Weather History & Observations

Time (MST) Temp. Windchill Dew Point Humidity Pressure Visibility Wind Dir Wind Speed Gust Speed Precip Events Conditions
12:53 AM 28.9 °F 21.9 °F 5.0 °F 36% 29.70 in 10.0 mi SW 6.9 mph - N/A   Partly Cloudy
1:53 AM 28.0 °F 21.7 °F 8.1 °F 43% 29.68 in 10.0 mi South 5.8 mph - N/A   Overcast
2:53 AM 30.9 °F - 8.1 °F 38% 29.64 in 10.0 mi Calm Calm - N/A   Overcast
3:53 AM 30.9 °F 26.2 °F 6.1 °F 35% 29.63 in 10.0 mi South 4.6 mph - N/A   Scattered Clouds
4:53 AM 28.0 °F - 8.1 °F 43% 29.65 in 10.0 mi Calm Calm - N/A   Mostly Cloudy
5:53 AM 25.0 °F - 10.0 °F 53% 29.68 in 10.0 mi Calm Calm - N/A   Scattered Clouds
6:53 AM 26.1 °F 21.9 °F 10.9 °F 53% 29.68 in 10.0 mi WNW 3.5 mph - N/A   Overcast
7:53 AM 27.0 °F - 14.0 °F 58% 29.69 in 10.0 mi Calm Calm - N/A   Overcast
8:53 AM 28.0 °F 24.2 °F 16.0 °F 61% 29.69 in 10.0 mi Variable 3.5 mph - N/A   Overcast
9:53 AM 32.0 °F 28.7 °F 19.0 °F 59% 29.68 in 10.0 mi Variable 3.5 mph - N/A   Overcast
10:53 AM 36.0 °F 29.0 °F 18.0 °F 48% 29.68 in 10.0 mi NNW 9.2 mph - N/A   Overcast
11:53 AM 34.0 °F 28.0 °F 21.0 °F 59% 29.68 in 10.0 mi NNW 6.9 mph - N/A   Overcast
12:53 PM 35.1 °F 28.6 °F 19.9 °F 54% 29.66 in 10.0 mi North 8.1 mph - N/A   Overcast
1:53 PM 33.1 °F 25.5 °F 26.1 °F 75% 29.66 in 10.0 mi NNW 9.2 mph - N/A   Overcast
2:41 PM 32.0 °F 24.2 °F 28.4 °F 87% 29.61 in 10.0 mi North 9.2 mph - N/A   Overcast
2:53 PM 32.0 °F 23.6 °F 28.0 °F 85% 29.66 in 9.0 mi NNW 10.4 mph - N/A   Overcast
3:20 PM 30.2 °F 21.3 °F 26.6 °F 86% 29.62 in 10.0 mi NNW 10.4 mph - 0.00 in   Overcast
3:34 PM 30.2 °F 21.9 °F 28.4 °F 93% 29.63 in 10.0 mi NNW 9.2 mph - 0.00 in   Overcast
3:53 PM 30.9 °F 22.2 °F 28.0 °F 89% 29.70 in 10.0 mi NNW 10.4 mph - 0.00 in   Overcast
4:11 PM 30.2 °F 21.9 °F 28.4 °F 93% 29.65 in 2.5 mi NNW 9.2 mph - 0.00 in Snow Light Snow
4:27 PM 30.2 °F 20.2 °F 28.4 °F 93% 29.65 in 1.8 mi NNW 12.7 mph - 0.00 in Snow Light Snow
4:44 PM 30.2 °F 21.3 °F 26.6 °F 86% 29.66 in 1.0 mi NNW 10.4 mph - 0.00 in Snow Light Snow
4:53 PM 28.9 °F 18.6 °F 27.0 °F 92% 29.74 in 0.8 mi NNW 12.7 mph - 0.00 in Snow Light Snow
5:07 PM 28.4 °F 18.5 °F 26.6 °F 93% 29.68 in 1.0 mi NNW 11.5 mph 25.3 mph 0.00 in Snow Light Snow
5:15 PM 28.4 °F 18.0 °F 26.6 °F 93% 29.68 in 0.8 mi NNW 12.7 mph 20.7 mph 0.00 in Snow Light Snow
5:51 PM 26.6 °F 11.4 °F 24.8 °F 93% 29.69 in 1.0 mi NNW 25.3 mph 35.7 mph 0.01 in Snow Light Snow
5:53 PM 27.0 °F 11.9 °F 25.0 °F 92% 29.78 in 1.2 mi NNW 25.3 mph 36.8 mph 0.01 in Snow Light Snow
6:07 PM 26.6 °F 11.7 °F 24.8 °F 93% 29.69 in 2.5 mi NNW 24.2 mph 36.8 mph 0.00 in Snow Light Snow
6:24 PM 26.6 °F 12.0 °F 24.8 °F 93% 29.70 in 3.0 mi NNW 23.0 mph 34.5 mph 0.00 in Snow Light Snow
6:40 PM 26.6 °F 12.4 °F 24.8 °F 93% 29.71 in 2.5 mi NNW 21.9 mph 35.7 mph 0.00 in Snow Light Snow
6:53 PM 27.0 °F 12.8 °F 24.1 °F 89% 29.80 in 2.5 mi NNW 21.9 mph 32.2 mph 0.00 in Snow Light Snow
7:20 PM 26.6 °F 12.7 °F 24.8 °F 93% 29.72 in 3.0 mi NNW 20.7 mph 29.9 mph 0.00 in Snow Light Snow
7:53 PM 27.0 °F 12.2 °F 24.1 °F 89% 29.82 in 2.5 mi NNW 24.2 mph 35.7 mph 0.00 in Snow Light Snow
8:10 PM 26.6 °F 9.8 °F 23.0 °F 86% 29.74 in 0.8 mi NNW 32.2 mph 44.9 mph 0.00 in Snow Light Snow
8:29 PM 26.6 °F 9.6 °F 23.0 °F 86% 29.76 in 0.5 mi NNW 33.4 mph 48.3 mph 0.00 in Fog , Snow Snow
8:42 PM 26.6 °F 10.0 °F 23.0 °F 86% 29.77 in 0.5 mi NW 31.1 mph 46.0 mph 0.00 in Fog , Snow Snow
8:53 PM 26.1 °F 9.6 °F 23.0 °F 88% 29.86 in 0.5 mi NW 29.9 mph 48.3 mph 0.00 in Fog , Snow Snow
9:11 PM 26.6 °F 10.6 °F 23.0 °F 86% 29.78 in 0.8 mi NNW 28.8 mph 39.1 mph 0.00 in Snow Light Snow
9:38 PM 26.6 °F 10.8 °F 21.2 °F 80% 29.80 in 1.0 mi NW 27.6 mph 40.3 mph 0.00 in Snow Light Snow
9:53 PM 26.1 °F 10.1 °F 21.9 °F 84% 29.88 in 1.0 mi NNW 27.6 mph 40.3 mph 0.00 in Snow Light Snow
10:00 PM 26.6 °F 11.4 °F 21.2 °F 80% 29.81 in 0.8 mi NNW 25.3 mph 36.8 mph 0.00 in Snow Light Snow
10:10 PM 26.6 °F 11.4 °F 21.2 °F 80% 29.82 in 1.0 mi NNW 25.3 mph 38.0 mph 0.00 in Snow Light Snow
10:23 PM 24.8 °F 8.7 °F 21.2 °F 86% 29.82 in 1.0 mi NNW 26.5 mph 36.8 mph 0.00 in Snow Light Snow
10:38 PM 24.8 °F 9.6 °F 21.2 °F 86% 29.83 in 1.2 mi NNW 23.0 mph 34.5 mph 0.00 in Snow Light Snow
10:46 PM 24.8 °F 9.0 °F 21.2 °F 86% 29.82 in 1.0 mi NNW 25.3 mph 40.3 mph 0.00 in Snow Light Snow
10:53 PM 25.0 °F 7.6 °F 21.0 °F 85% 29.89 in 0.8 mi NW 32.2 mph 41.4 mph 0.00 in Snow Light Snow
11:03 PM 24.8 °F 8.7 °F 21.2 °F 86% 29.83 in 1.0 mi NNW 26.5 mph 40.3 mph 0.00 in Snow Light Snow
11:12 PM 24.8 °F 9.6 °F 21.2 °F 86% 29.83 in 1.2 mi NNW 23.0 mph 38.0 mph 0.00 in Snow Light Snow
11:23 PM 24.8 °F 9.6 °F 19.4 °F 80% 29.83 in 3.0 mi NNW 23.0 mph 39.1 mph 0.00 in   Overcast
11:48 PM 24.8 °F 8.7 °F 19.4 °F 80% 29.84 in 2.0 mi NNW 26.5 mph 38.0 mph 0.00 in Snow Light Snow
11:53 PM 25.0 °F 9.5 °F 19.0 °F 78% 29.91 in 2.5 mi NNW 24.2 mph 38.0 mph 0.00 in Snow Light Snow